Time,TemperatureF,DewpointF,PressureIn,WindDirection,WindDirectionDegrees,WindSpeedMPH,WindSpeedGustMPH,Humidity,HourlyPrecipIn,Conditions,Clouds,dailyrainin,SolarRadiationWatts/m^2,SoftwareType,DateUTC
2013-05-08 00:01:00,62.2,51.5,29.93,SE,138,0.8,2.3,68,0.00,BKN,,0.00,0.0,WeatherDisplay:10.37,2013-05-08 04:01:00,
2013-05-08 00:06:00,62.4,51.7,29.94,SE,144,0.5,2.3,68,0.00,BKN,,0.00,0.0,WeatherDisplay:10.37,2013-05-08 04:06:00,
2013-05-08 00:11:00,62.4,51.7,29.94,SE,138,0.5,2.3,68,0.00,BKN,,0.00,0.0,WeatherDisplay:10.37,2013-05-08 04:11:00,
2013-05-08 00:16:00,62.4,51.7,29.93,SSE,152,0.7,1.6,68,0.00,BKN,,0.00,0.0,WeatherDisplay:10.37,2013-05-08 04:16:00,
2013-05-08 00:21:00,62.4,51.7,29.94,SE,145,0.4,1.1,68,0.00,BKN,,0.00,0.0,WeatherDisplay:10.37,2013-05-08 04:21:00,
2013-05-08 00:26:00,62.4,51.7,29.94,SSE,150,0.1,0.9,68,0.00,BKN,,0.00,0.0,WeatherDisplay:10.37,2013-05-08 04:26:00,
2013-05-08 00:31:00,62.4,51.7,29.93,SE,141,0.0,1.1,68,0.00,BKN,,0.00,0.0,WeatherDisplay:10.37,2013-05-08 04:31:00,
2013-05-08 00:36:00,62.2,51.5,29.93,SSE,154,0.4,1.6,68,0.00,BKN,,0.00,0.0,WeatherDisplay:10.37,2013-05-08 04:36:00,
2013-05-08 00:41:00,62.2,51.5,29.93,SSE,147,0.5,1.6,68,0.00,BKN,,0.00,0.0,WeatherDisplay:10.37,2013-05-08 04:41:00,
2013-05-08 00:46:00,62.2,51.9,29.93,SSE,149,0.1,1.1,69,0.00,BKN,,0.00,0.0,WeatherDisplay:10.37,2013-05-08 04:46:00,
2013-05-08 00:51:00,62.2,51.5,29.93,SSE,154,0.0,0.0,68,0.00,BKN,,0.00,0.0,WeatherDisplay:10.37,2013-05-08 04:51:00,
2013-05-08 00:56:00,62.2,51.5,29.93,SSE,155,0.0,0.0,68,0.00,BKN,,0.00,0.0,WeatherDisplay:10.37,2013-05-08 04:56:00,
2013-05-08 01:01:00,62.1,51.8,29.93,SE,140,0.4,1.6,69,0.00,BKN,,0.00,0.0,WeatherDisplay:10.37,2013-05-08 05:01:00,
2013-05-08 01:06:00,62.1,51.8,29.93,SE,139,0.5,1.1,69,0.00,BKN,,0.00,0.0,WeatherDisplay:10.37,2013-05-08 05:06:00,
2013-05-08 01:11:00,62.1,51.8,29.93,SE,133,0.0,0.0,69,0.00,BKN,,0.00,0.0,WeatherDisplay:10.37,2013-05-08 05:11:00,
2013-05-08 01:16:00,62.1,51.4,29.93,SE,132,0.0,0.0,68,0.00,BKN,,0.00,0.0,WeatherDisplay:10.37,2013-05-08 05:16:00,
2013-05-08 01:21:00,62.1,51.4,29.93,SE,131,0.0,0.0,68,0.00,BKN,,0.00,0.0,WeatherDisplay:10.37,2013-05-08 05:21:00,
2013-05-08 01:26:00,62.1,51.4,29.93,SE,132,0.0,0.0,68,0.00,BKN,,0.00,0.0,WeatherDisplay:10.37,2013-05-08 05:26:00,
2013-05-08 01:31:00,61.9,51.2,29.92,SE,131,0.0,0.0,68,0.00,BKN,,0.00,0.0,WeatherDisplay:10.37,2013-05-08 05:31:00,
2013-05-08 01:36:00,61.7,51.0,29.92,SE,130,0.0,0.0,68,0.00,BKN,,0.00,0.0,WeatherDisplay:10.37,2013-05-08 05:36:00,
2013-05-08 01:41:00,61.5,50.9,29.92,ESE,104,0.0,0.0,68,0.00,BKN,,0.00,0.0,WeatherDisplay:10.37,2013-05-08 05:41:00,
2013-05-08 01:46:00,61.5,51.3,29.92,SE,132,0.0,1.1,69,0.00,BKN,,0.00,0.0,WeatherDisplay:10.37,2013-05-08 05:46:00,
2013-05-08 01:51:00,61.5,51.6,29.92,SE,138,0.4,2.3,70,0.00,BKN,,0.00,0.0,WeatherDisplay:10.37,2013-05-08 05:51:00,
2013-05-08 01:56:00,61.5,51.3,29.92,SE,138,0.2,1.1,69,0.00,BKN,,0.00,0.0,WeatherDisplay:10.37,2013-05-08 05:56:00,
2013-05-08 02:01:00,61.0,50.7,29.91,SE,138,0.3,1.1,69,0.00,BKN,,0.00,0.0,WeatherDisplay:10.37,2013-05-08 06:01:00,
2013-05-08 02:06:00,60.6,50.8,29.91,SE,137,0.8,2.3,70,0.00,BKN,,0.00,0.0,WeatherDisplay:10.37,2013-05-08 06:06:00,
2013-05-08 02:11:00,60.6,50.8,29.92,SSE,153,0.0,1.1,70,0.00,BKN,,0.00,0.0,WeatherDisplay:10.37,2013-05-08 06:11:00,
2013-05-08 02:16:00,60.4,50.6,29.92,SSE,153,0.0,0.0,70,0.00,BKN,,0.00,0.0,WeatherDisplay:10.37,2013-05-08 06:16:00,
2013-05-08 02:21:00,60.3,50.8,29.91,SSE,150,0.0,0.0,71,0.00,BKN,,0.00,0.0,WeatherDisplay:10.37,2013-05-08 06:21:00,
2013-05-08 02:26:00,60.6,51.2,29.91,SE,140,1.2,2.3,71,0.00,BKN,,0.00,0.0,WeatherDisplay:10.37,2013-05-08 06:26:00,
2013-05-08 02:31:00,61.0,51.1,29.91,SE,145,1.1,2.3,70,0.00,BKN,,0.00,0.0,WeatherDisplay:10.37,2013-05-08 06:31:00,
2013-05-08 02:36:00,61.3,51.1,29.91,SE,142,0.0,1.1,69,0.00,BKN,,0.00,0.0,WeatherDisplay:10.37,2013-05-08 06:36:00,
2013-05-08 02:41:00,61.3,51.1,29.91,SE,141,0.2,2.3,69,0.00,BKN,,0.00,0.0,WeatherDisplay:10.37,2013-05-08 06:41:00,
2013-05-08 02:46:00,61.3,51.1,29.91,SE,141,0.0,0.0,69,0.00,BKN,,0.00,0.0,WeatherDisplay:10.37,2013-05-08 06:46:00,
2013-05-08 02:51:00,61.3,51.1,29.91,SE,143,0.2,1.1,69,0.00,BKN,,0.00,0.0,WeatherDisplay:10.37,2013-05-08 06:51:00,
2013-05-08 02:56:00,61.3,51.1,29.91,SSE,147,1.1,1.8,69,0.00,BKN,,0.00,0.0,WeatherDisplay:10.37,2013-05-08 06:56:00,
2013-05-08 03:01:00,61.3,51.1,29.91,SSE,154,0.8,2.3,69,0.00,BKN,,0.00,0.0,WeatherDisplay:10.37,2013-05-08 07:01:00,
2013-05-08 03:06:00,61.5,51.3,29.91,SE,130,0.0,1.1,69,0.00,BKN,,0.00,0.0,WeatherDisplay:10.37,2013-05-08 07:06:00,
2013-05-08 03:11:00,61.3,51.1,29.91,SE,131,0.0,0.0,69,0.00,BKN,,0.00,0.0,WeatherDisplay:10.37,2013-05-08 07:11:00,
2013-05-08 03:16:00,61.3,51.1,29.91,SE,131,0.0,0.0,69,0.00,BKN,,0.00,0.0,WeatherDisplay:10.37,2013-05-08 07:16:00,
2013-05-08 03:21:00,61.2,50.9,29.91,SE,131,0.0,0.0,69,0.00,BKN,,0.00,0.0,WeatherDisplay:10.37,2013-05-08 07:21:00,
2013-05-08 03:26:00,61.0,50.7,29.91,SE,132,0.1,1.1,69,0.00,BKN,,0.00,0.0,WeatherDisplay:10.37,2013-05-08 07:26:00,
2013-05-08 03:31:00,60.6,50.4,29.91,SE,132,0.0,0.0,69,0.00,BKN,,0.00,0.0,WeatherDisplay:10.37,2013-05-08 07:31:00,
2013-05-08 03:36:00,60.3,50.4,29.91,SE,131,0.1,1.1,70,0.00,BKN,,0.00,0.0,WeatherDisplay:10.37,2013-05-08 07:36:00,
2013-05-08 03:41:00,59.7,50.7,29.91,SE,131,0.0,0.0,72,0.00,BKN,,0.00,0.0,WeatherDisplay:10.37,2013-05-08 07:41:00,
2013-05-08 03:46:00,59.4,50.7,29.91,SE,131,0.0,0.0,73,0.00,BKN,,0.00,0.0,WeatherDisplay:10.37,2013-05-08 07:46:00,
2013-05-08 03:51:00,59.2,50.9,29.91,SE,131,0.3,1.1,74,0.00,BKN,,0.00,0.0,WeatherDisplay:10.37,2013-05-08 07:51:00,
2013-05-08 03:56:00,59.2,50.9,29.91,SE,133,0.0,1.1,74,0.00,BKN,,0.00,0.0,WeatherDisplay:10.37,2013-05-08 07:56:00,
2013-05-08 04:01:00,59.2,51.3,29.91,SE,133,0.6,1.1,75,0.00,BKN,,0.00,0.0,WeatherDisplay:10.37,2013-05-08 08:01:00,
2013-05-08 04:06:00,59.7,51.4,29.91,SE,142,1.3,2.3,74,0.00,BKN,,0.00,0.0,WeatherDisplay:10.37,2013-05-08 08:06:00,
2013-05-08 04:11:00,60.1,51.4,29.91,SE,143,0.0,1.1,73,0.00,BKN,,0.00,0.0,WeatherDisplay:10.37,2013-05-08 08:11:00,
2013-05-08 04:16:00,59.9,51.6,29.91,SE,143,0.1,1.0,74,0.00,BKN,,0.00,0.0,WeatherDisplay:10.37,2013-05-08 08:16:00,
2013-05-08 04:21:00,59.7,51.4,29.91,SE,143,0.0,1.1,74,0.00,BKN,,0.00,0.0,WeatherDisplay:10.37,2013-05-08 08:21:00,
2013-05-08 04:26:00,59.7,51.4,29.91,SE,143,0.0,0.0,74,0.00,BKN,,0.00,0.0,WeatherDisplay:10.37,2013-05-08 08:26:00,
2013-05-08 04:31:00,59.7,51.8,29.91,SE,143,0.0,0.0,75,0.00,BKN,,0.00,0.0,WeatherDisplay:10.37,2013-05-08 08:31:00,
2013-05-08 04:36:00,59.5,51.6,29.91,SE,141,0.0,1.1,75,0.00,BKN,,0.00,0.0,WeatherDisplay:10.37,2013-05-08 08:36:00,
2013-05-08 04:41:00,59.5,52.0,29.90,SE,142,0.0,1.1,76,0.00,BKN,,0.00,0.0,WeatherDisplay:10.37,2013-05-08 08:41:00,
2013-05-08 04:46:00,59.4,51.8,29.91,SE,140,0.5,1.5,76,0.00,BKN,,0.00,0.0,WeatherDisplay:10.37,2013-05-08 08:46:00,
2013-05-08 04:51:00,59.2,52.0,29.91,SE,138,0.7,1.1,77,0.00,BKN,,0.00,0.0,WeatherDisplay:10.37,2013-05-08 08:51:00,
2013-05-08 04:56:00,59.2,52.0,29.91,SE,133,0.8,1.1,77,0.00,BKN,,0.00,0.0,WeatherDisplay:10.37,2013-05-08 08:56:00,
2013-05-08 05:01:00,59.4,51.8,29.91,SSE,148,0.3,1.1,76,0.00,BKN,,0.00,0.0,WeatherDisplay:10.37,2013-05-08 09:01:00,
2013-05-08 05:06:00,59.4,51.8,29.91,SE,137,0.4,1.1,76,0.00,BKN,,0.00,0.0,WeatherDisplay:10.37,2013-05-08 09:06:00,
2013-05-08 05:11:00,59.5,51.6,29.91,SE,136,0.0,1.1,75,0.00,BKN,,0.00,0.0,WeatherDisplay:10.37,2013-05-08 09:11:00,
2013-05-08 05:16:00,59.5,51.6,29.91,SE,145,0.0,0.0,75,0.00,BKN,,0.00,0.0,WeatherDisplay:10.37,2013-05-08 09:16:00,
2013-05-08 05:21:00,59.5,51.6,29.91,SE,143,0.4,1.1,75,0.00,BKN,,0.00,0.0,WeatherDisplay:10.37,2013-05-08 09:21:00,
2013-05-08 05:26:00,59.7,51.4,29.91,SE,140,1.2,2.3,74,0.00,BKN,,0.00,0.0,WeatherDisplay:10.37,2013-05-08 09:26:00,
2013-05-08 05:31:00,60.4,51.7,29.91,SSE,161,1.4,3.5,73,0.00,BKN,,0.00,0.0,WeatherDisplay:10.37,2013-05-08 09:31:00,
2013-05-08 05:36:00,60.6,51.2,29.91,SE,145,2.3,4.6,71,0.00,BKN,,0.00,0.0,WeatherDisplay:10.37,2013-05-08 09:36:00,
2013-05-08 05:41:00,61.2,51.3,29.91,SE,124,3.1,5.8,70,0.00,BKN,,0.00,0.0,WeatherDisplay:10.37,2013-05-08 09:41:00,
2013-05-08 05:46:00,61.5,51.3,29.91,SE,124,1.5,4.6,69,0.00,BKN,,0.00,0.0,WeatherDisplay:10.37,2013-05-08 09:46:00,
2013-05-08 05:51:00,61.5,50.9,29.91,SE,137,0.3,2.3,68,0.00,BKN,,0.00,0.0,WeatherDisplay:10.37,2013-05-08 09:51:00,
2013-05-08 05:56:00,61.5,51.3,29.91,SE,130,0.0,0.0,69,0.00,BKN,,0.00,0.0,WeatherDisplay:10.37,2013-05-08 09:56:00,
2013-05-08 06:01:00,61.3,51.1,29.91,SSE,150,1.1,1.1,69,0.00,BKN,,0.00,0.0,WeatherDisplay:10.37,2013-05-08 10:01:00,
2013-05-08 06:06:00,61.3,51.1,29.91,SSE,149,0.4,2.1,69,0.00,BKN,,0.00,0.0,WeatherDisplay:10.37,2013-05-08 10:06:00,
2013-05-08 06:11:00,61.3,51.1,29.91,SE,133,2.2,3.5,69,0.00,BKN,,0.00,0.0,WeatherDisplay:10.37,2013-05-08 10:11:00,
2013-05-08 06:16:00,61.3,51.1,29.91,ESE,110,2.3,3.5,69,0.00,BKN,,0.00,0.0,WeatherDisplay:10.37,2013-05-08 10:16:00,
2013-05-08 06:21:00,61.3,51.1,29.91,ESE,109,0.8,3.5,69,0.00,BKN,,0.00,0.0,WeatherDisplay:10.37,2013-05-08 10:21:00,
2013-05-08 06:26:00,61.5,51.3,29.92,SE,133,0.8,2.3,69,0.00,BKN,,0.00,0.0,WeatherDisplay:10.37,2013-05-08 10:26:00,
2013-05-08 06:31:00,61.5,51.3,29.92,ESE,120,2.0,3.5,69,0.00,BKN,,0.00,0.0,WeatherDisplay:10.37,2013-05-08 10:31:00,
2013-05-08 06:36:00,61.9,51.2,29.92,SE,138,2.5,3.5,68,0.00,BKN,,0.00,0.0,WeatherDisplay:10.37,2013-05-08 10:36:00,
2013-05-08 06:41:00,62.2,51.5,29.92,ESE,120,2.4,5.8,68,0.00,BKN,,0.00,0.0,WeatherDisplay:10.37,2013-05-08 10:41:00,
2013-05-08 06:46:00,62.6,51.5,29.92,SE,138,1.6,3.5,67,0.00,BKN,,0.00,0.0,WeatherDisplay:10.37,2013-05-08 10:46:00,
2013-05-08 06:51:00,62.8,51.2,29.92,SE,127,1.4,3.5,66,0.00,BKN,,0.00,0.0,WeatherDisplay:10.37,2013-05-08 10:51:00,
2013-05-08 06:56:00,63.1,51.6,29.92,East,95,0.5,3.5,66,0.00,BKN,,0.00,0.0,WeatherDisplay:10.37,2013-05-08 10:56:00,
2013-05-08 07:01:00,63.3,52.2,29.92,East,98,0.0,0.0,67,0.00,BKN,,0.00,1.1,WeatherDisplay:10.37,2013-05-08 11:01:00,
2013-05-08 07:06:00,63.1,52.0,29.93,East,93,0.1,2.3,67,0.00,BKN,,0.00,2.8,WeatherDisplay:10.37,2013-05-08 11:06:00,
2013-05-08 07:11:00,63.0,51.8,29.93,SSE,149,1.4,3.5,67,0.00,BKN,,0.00,5.2,WeatherDisplay:10.37,2013-05-08 11:11:00,
2013-05-08 07:16:00,63.1,52.0,29.92,SSE,156,1.2,3.5,67,0.00,BKN,,0.00,6.0,WeatherDisplay:10.37,2013-05-08 11:16:00,
2013-05-08 07:21:00,63.1,52.0,29.93,SE,135,1.5,4.6,67,0.00,BKN,,0.00,7.5,WeatherDisplay:10.37,2013-05-08 11:21:00,
2013-05-08 07:26:00,63.1,51.6,29.93,SE,138,2.1,5.8,66,0.00,BKN,,0.00,8.8,WeatherDisplay:10.37,2013-05-08 11:26:00,
2013-05-08 07:31:00,63.1,51.6,29.93,SE,124,2.3,4.1,66,0.00,BKN,,0.00,11.0,WeatherDisplay:10.37,2013-05-08 11:31:00,
2013-05-08 07:36:00,63.3,52.2,29.93,SSE,148,0.5,2.3,67,0.00,BKN,,0.00,15.8,WeatherDisplay:10.37,2013-05-08 11:36:00,
2013-05-08 07:41:00,63.3,52.2,29.93,SE,130,0.7,3.5,67,0.00,BKN,,0.00,19.7,WeatherDisplay:10.37,2013-05-08 11:41:00,
2013-05-08 07:46:00,63.5,52.3,29.93,ESE,114,0.0,2.3,67,0.00,BKN,,0.00,24.0,WeatherDisplay:10.37,2013-05-08 11:46:00,
2013-05-08 07:51:00,63.9,52.7,29.93,NE,34,0.1,1.1,67,0.00,BKN,,0.00,27.7,WeatherDisplay:10.37,2013-05-08 11:51:00,
2013-05-08 07:56:00,64.0,52.9,29.93,SE,144,0.3,2.3,67,0.00,BKN,,0.00,25.9,WeatherDisplay:10.37,2013-05-08 11:56:00,
2013-05-08 08:01:00,64.0,53.3,29.93,SSE,153,0.3,2.3,68,0.00,BKN,,0.00,27.7,WeatherDisplay:10.37,2013-05-08 12:01:00,
2013-05-08 08:06:00,63.9,53.1,29.93,SE,144,0.9,2.3,68,0.00,BKN,,0.00,30.9,WeatherDisplay:10.37,2013-05-08 12:06:00,
2013-05-08 08:11:00,64.0,53.7,29.93,SE,145,0.9,3.2,69,0.00,BKN,,0.00,38.6,WeatherDisplay:10.37,2013-05-08 12:11:00,
2013-05-08 08:16:00,64.2,53.8,29.93,SSE,154,0.2,0.0,69,0.00,BKN,,0.00,46.9,WeatherDisplay:10.37,2013-05-08 12:16:00,
2013-05-08 08:21:00,64.6,53.8,29.93,East,90,0.4,2.3,68,0.00,BKN,,0.00,59.7,WeatherDisplay:10.37,2013-05-08 12:21:00,
2013-05-08 08:26:00,65.1,54.3,29.93,NE,44,0.7,1.1,68,0.00,BKN,,0.00,62.4,WeatherDisplay:10.37,2013-05-08 12:26:00,
2013-05-08 08:31:00,65.3,54.1,29.93,NE,38,0.8,3.1,67,0.00,BKN,,0.00,64.0,WeatherDisplay:10.37,2013-05-08 12:31:00,
2013-05-08 08:36:00,65.5,54.2,29.93,NE,56,1.5,3.5,67,0.00,BKN,,0.00,66.1,WeatherDisplay:10.37,2013-05-08 12:36:00,
2013-05-08 08:41:00,65.7,54.4,29.94,East,88,0.0,1.1,67,0.00,BKN,,0.00,57.3,WeatherDisplay:10.37,2013-05-08 12:41:00,
2013-05-08 08:46:00,65.8,54.2,29.94,NE,41,0.3,4.6,66,0.00,BKN,,0.00,55.8,WeatherDisplay:10.37,2013-05-08 12:46:00,
2013-05-08 08:51:00,66.0,54.3,29.94,NE,47,0.1,0.0,66,0.00,BKN,,0.00,71.2,WeatherDisplay:10.37,2013-05-08 12:51:00,
2013-05-08 08:56:00,66.0,54.3,29.94,ENE,63,0.8,5.8,66,0.00,BKN,,0.00,93.0,WeatherDisplay:10.37,2013-05-08 12:56:00,
2013-05-08 09:01:00,66.6,54.8,29.94,East,96,0.2,2.3,66,0.00,-RA,BKN,0.00,135.5,WeatherDisplay:10.37,2013-05-08 13:01:00,
2013-05-08 09:06:00,67.3,55.9,29.93,ENE,59,0.2,1.1,67,0.00,-RA,BKN,0.00,209.7,WeatherDisplay:10.37,2013-05-08 13:06:00,
2013-05-08 09:11:00,68.4,56.1,29.93,NNE,32,0.7,2.3,65,0.00,-RA,BKN,0.00,302.2,WeatherDisplay:10.37,2013-05-08 13:11:00,
2013-05-08 09:16:00,68.9,54.9,29.93,SSE,161,2.9,6.9,61,0.00,-RA,BKN,0.00,293.2,WeatherDisplay:10.37,2013-05-08 13:16:00,
2013-05-08 09:21:00,68.9,54.9,29.93,SSE,154,2.6,6.9,61,0.00,-RA,BKN,0.00,353.8,WeatherDisplay:10.37,2013-05-08 13:21:00,
2013-05-08 09:26:00,69.3,55.7,29.93,ESE,103,3.6,6.9,62,0.00,-RA,BKN,0.00,286.9,WeatherDisplay:10.37,2013-05-08 13:26:00,
2013-05-08 09:31:00,68.7,54.7,29.93,East,87,3.4,8.1,61,0.00,-RA,BKN,0.00,260.8,WeatherDisplay:10.37,2013-05-08 13:31:00,
2013-05-08 09:36:00,68.4,54.8,29.93,ESE,114,4.1,8.3,62,0.00,-RA,BKN,0.00,223.1,WeatherDisplay:10.37,2013-05-08 13:36:00,
2013-05-08 09:41:00,68.4,55.3,29.93,ESE,122,1.2,4.6,63,0.00,-RA,BKN,0.00,207.5,WeatherDisplay:10.37,2013-05-08 13:41:00,
2013-05-08 09:46:00,68.4,55.3,29.93,North,352,1.7,6.9,63,0.00,-RA,BKN,0.00,196.1,WeatherDisplay:10.37,2013-05-08 13:46:00,
2013-05-08 09:51:00,68.2,55.5,29.93,SSE,156,3.1,6.8,64,0.00,-RA,BKN,0.00,203.1,WeatherDisplay:10.37,2013-05-08 13:51:00,
2013-05-08 09:56:00,68.0,55.4,29.93,South,179,0.3,6.9,64,0.00,-RA,BKN,0.00,190.4,WeatherDisplay:10.37,2013-05-08 13:56:00,
2013-05-08 10:01:00,67.8,55.2,29.93,NE,42,3.6,8.1,64,0.00,-RA,BKN,0.00,170.6,WeatherDisplay:10.37,2013-05-08 14:01:00,
2013-05-08 10:06:00,68.2,55.5,29.93,ESE,108,2.3,2.3,64,0.00,-RA,BKN,0.00,177.1,WeatherDisplay:10.37,2013-05-08 14:06:00,
2013-05-08 10:11:00,68.4,55.7,29.93,SSE,159,0.7,3.5,64,0.00,-RA,BKN,0.00,208.8,WeatherDisplay:10.37,2013-05-08 14:11:00,
2013-05-08 10:16:00,68.2,55.5,29.93,SSE,150,3.3,8.1,64,0.00,-RA,BKN,0.00,257.0,WeatherDisplay:10.37,2013-05-08 14:16:00,
2013-05-08 10:21:00,68.5,55.9,29.93,SSE,150,1.2,2.3,64,0.00,-RA,BKN,0.00,265.5,WeatherDisplay:10.37,2013-05-08 14:21:00,
2013-05-08 10:26:00,68.7,55.6,29.93,ESE,119,4.0,7.2,63,0.00,-RA,BKN,0.00,266.4,WeatherDisplay:10.37,2013-05-08 14:26:00,
2013-05-08 10:31:00,68.7,56.0,29.93,SE,135,3.8,8.1,64,0.00,-RA,BKN,0.00,273.7,WeatherDisplay:10.37,2013-05-08 14:31:00,
2013-05-08 10:36:00,68.7,56.0,29.93,SSE,148,1.8,5.8,64,0.00,-RA,BKN,0.00,292.7,WeatherDisplay:10.37,2013-05-08 14:36:00,
2013-05-08 10:41:00,68.7,56.0,29.93,SSE,158,1.7,8.1,64,0.00,-RA,BKN,0.00,300.9,WeatherDisplay:10.37,2013-05-08 14:41:00,
2013-05-08 10:46:00,68.9,56.2,29.93,SSE,156,2.1,5.8,64,0.00,-RA,BKN,0.00,324.1,WeatherDisplay:10.37,2013-05-08 14:46:00,
2013-05-08 10:51:00,69.6,56.5,29.93,ENE,65,2.8,4.6,63,0.00,-RA,BKN,0.00,385.3,WeatherDisplay:10.37,2013-05-08 14:51:00,
2013-05-08 10:56:00,69.6,56.0,29.93,SSW,211,3.4,6.9,62,0.00,-RA,BKN,0.00,538.6,WeatherDisplay:10.37,2013-05-08 14:56:00,
2013-05-08 11:01:00,69.8,56.2,29.93,SSE,167,4.4,8.1,62,0.00,BKN,,0.00,545.5,WeatherDisplay:10.37,2013-05-08 15:01:00,
2013-05-08 11:06:00,70.0,56.4,29.93,SSW,195,4.3,8.1,62,0.00,BKN,,0.00,583.0,WeatherDisplay:10.37,2013-05-08 15:06:00,
2013-05-08 11:11:00,70.2,56.5,29.93,South,170,2.6,8.1,62,0.00,BKN,,0.00,870.3,WeatherDisplay:10.37,2013-05-08 15:11:00,
2013-05-08 11:16:00,70.5,56.4,29.92,South,173,4.6,9.2,61,0.00,BKN,,0.00,765.4,WeatherDisplay:10.37,2013-05-08 15:16:00,
2013-05-08 11:21:00,71.2,56.6,29.92,South,172,3.0,6.9,60,0.00,BKN,,0.00,735.3,WeatherDisplay:10.37,2013-05-08 15:21:00,
2013-05-08 11:26:00,72.1,57.0,29.92,ESE,106,0.6,4.6,59,0.00,BKN,,0.00,566.1,WeatherDisplay:10.37,2013-05-08 15:26:00,
2013-05-08 11:31:00,73.2,57.6,29.92,NE,44,0.5,4.6,58,0.00,BKN,,0.00,558.5,WeatherDisplay:10.37,2013-05-08 15:31:00,
2013-05-08 11:36:00,73.6,57.9,29.92,East,82,1.6,4.6,58,0.00,BKN,,0.00,620.0,WeatherDisplay:10.37,2013-05-08 15:36:00,
2013-05-08 11:41:00,73.0,56.9,29.92,East,101,3.2,5.8,57,0.00,BKN,,0.00,625.7,WeatherDisplay:10.37,2013-05-08 15:41:00,
2013-05-08 11:46:00,73.2,57.6,29.92,NE,55,2.8,4.7,58,0.00,BKN,,0.00,713.4,WeatherDisplay:10.37,2013-05-08 15:46:00,
2013-05-08 11:51:00,73.0,56.9,29.92,SSE,163,3.5,5.5,57,0.00,BKN,,0.00,590.5,WeatherDisplay:10.37,2013-05-08 15:51:00,
2013-05-08 11:56:00,72.9,56.7,29.92,NNE,33,0.7,5.8,57,0.00,BKN,,0.00,406.4,WeatherDisplay:10.37,2013-05-08 15:56:00,
2013-05-08 12:01:00,72.9,56.7,29.92,NE,46,0.9,4.6,57,0.00,BKN,,0.00,335.8,WeatherDisplay:10.37,2013-05-08 16:01:00,
2013-05-08 12:06:00,72.1,56.5,29.91,NE,36,3.9,8.1,58,0.00,BKN,,0.00,278.0,WeatherDisplay:10.37,2013-05-08 16:06:00,
2013-05-08 12:11:00,71.2,56.2,29.92,SE,124,2.5,6.9,59,0.00,BKN,,0.00,235.3,WeatherDisplay:10.37,2013-05-08 16:11:00,
2013-05-08 12:16:00,70.9,56.3,29.92,SE,138,3.0,5.5,60,0.00,BKN,,0.00,239.8,WeatherDisplay:10.37,2013-05-08 16:16:00,
2013-05-08 12:21:00,70.9,56.8,29.92,NNE,20,0.7,3.5,61,0.00,BKN,,0.00,261.8,WeatherDisplay:10.37,2013-05-08 16:21:00,
2013-05-08 12:26:00,70.9,56.3,29.91,SE,130,4.0,6.9,60,0.00,BKN,,0.00,217.5,WeatherDisplay:10.37,2013-05-08 16:26:00,
2013-05-08 12:31:00,70.2,56.1,29.91,SE,124,3.6,6.9,61,0.00,BKN,,0.00,198.9,WeatherDisplay:10.37,2013-05-08 16:31:00,
2013-05-08 12:36:00,69.8,56.6,29.91,SSE,152,2.5,6.9,63,0.00,BKN,,0.00,202.7,WeatherDisplay:10.37,2013-05-08 16:36:00,
2013-05-08 12:41:00,69.6,56.5,29.91,SE,132,0.8,5.8,63,0.00,BKN,,0.00,228.2,WeatherDisplay:10.37,2013-05-08 16:41:00,
2013-05-08 12:46:00,70.0,58.5,29.91,East,99,0.5,2.3,67,0.00,BKN,,0.00,256.6,WeatherDisplay:10.37,2013-05-08 16:46:00,
2013-05-08 12:51:00,70.2,57.4,29.91,SE,134,0.7,2.8,64,0.00,BKN,,0.00,258.2,WeatherDisplay:10.37,2013-05-08 16:51:00,
2013-05-08 12:56:00,70.3,57.6,29.91,SE,140,0.3,2.6,64,0.00,BKN,,0.00,211.3,WeatherDisplay:10.37,2013-05-08 16:56:00,
2013-05-08 13:01:00,70.5,57.3,29.91,SSE,158,0.4,2.3,63,0.00,OVC,BKN,0.00,233.5,WeatherDisplay:10.37,2013-05-08 17:01:00,
2013-05-08 13:06:00,70.5,57.3,29.91,South,175,0.0,1.1,63,0.00,OVC,BKN,0.00,204.7,WeatherDisplay:10.37,2013-05-08 17:06:00,
2013-05-08 13:11:00,70.5,57.3,29.91,SSE,161,0.2,0.0,63,0.00,OVC,BKN,0.00,180.5,WeatherDisplay:10.37,2013-05-08 17:11:00,
2013-05-08 13:16:00,70.3,57.6,29.91,ESE,114,1.4,4.6,64,0.00,OVC,BKN,0.00,159.9,WeatherDisplay:10.37,2013-05-08 17:16:00,
2013-05-08 13:21:00,70.0,58.5,29.91,SE,133,0.9,2.3,67,0.00,OVC,BKN,0.00,120.0,WeatherDisplay:10.37,2013-05-08 17:21:00,
2013-05-08 13:26:00,68.7,58.5,29.91,SSE,167,2.8,5.8,70,0.02,RA,BKN,0.02,98.8,WeatherDisplay:10.37,2013-05-08 17:26:00,
2013-05-08 13:31:00,67.1,58.9,29.91,South,172,0.3,2.3,75,0.06,RA,BKN,0.08,77.5,WeatherDisplay:10.37,2013-05-08 17:31:00,
2013-05-08 13:36:00,65.7,59.3,29.92,SSE,168,3.8,6.9,80,0.11,RA,BKN,0.12,84.1,WeatherDisplay:10.37,2013-05-08 17:36:00,
2013-05-08 13:41:00,64.4,59.5,29.91,South,172,1.2,5.8,84,0.20,RA,BKN,0.21,136.7,WeatherDisplay:10.37,2013-05-08 17:41:00,
2013-05-08 13:46:00,64.2,59.6,29.91,SE,135,1.5,2.3,85,0.22,RA,BKN,0.23,206.0,WeatherDisplay:10.37,2013-05-08 17:46:00,
2013-05-08 13:51:00,64.4,60.1,29.91,East,101,0.0,1.1,86,0.24,RA,BKN,0.24,271.8,WeatherDisplay:10.37,2013-05-08 17:51:00,
2013-05-08 13:56:00,64.9,61.0,29.91,ESE,117,0.0,1.1,87,0.24,RA,BKN,0.24,265.6,WeatherDisplay:10.37,2013-05-08 17:56:00,
2013-05-08 14:01:00,65.3,61.3,29.91,ESE,114,0.1,1.1,87,0.24,OVC,BKN,0.24,247.8,WeatherDisplay:10.37,2013-05-08 18:01:00,
2013-05-08 14:06:00,65.5,61.8,29.91,East,80,0.2,1.1,88,0.24,OVC,BKN,0.25,206.7,WeatherDisplay:10.37,2013-05-08 18:06:00,
2013-05-08 14:11:00,65.3,61.3,29.91,ENE,60,0.4,3.5,87,0.26,RA,BKN,0.26,172.1,WeatherDisplay:10.37,2013-05-08 18:11:00,
2013-05-08 14:16:00,64.9,61.0,29.91,ESE,115,1.3,4.6,87,0.26,RA,BKN,0.26,165.6,WeatherDisplay:10.37,2013-05-08 18:16:00,
2013-05-08 14:21:00,65.1,61.5,29.91,SSE,151,1.2,2.3,88,0.27,RA,BKN,0.28,178.3,WeatherDisplay:10.37,2013-05-08 18:21:00,
2013-05-08 14:26:00,64.8,61.1,29.91,ENE,72,0.8,3.5,88,0.27,RA,BKN,0.29,210.2,WeatherDisplay:10.37,2013-05-08 18:26:00,
2013-05-08 14:31:00,64.6,60.9,29.91,NNE,19,0.6,2.3,88,0.24,RA,BKN,0.30,165.1,WeatherDisplay:10.37,2013-05-08 18:31:00,
2013-05-08 14:36:00,64.6,60.9,29.91,ENE,63,1.1,2.3,88,0.20,RA,BKN,0.31,125.2,WeatherDisplay:10.37,2013-05-08 18:36:00,
2013-05-08 14:41:00,64.4,60.8,29.91,East,94,0.9,3.5,88,0.13,RA,BKN,0.34,155.6,WeatherDisplay:10.37,2013-05-08 18:41:00,
2013-05-08 14:46:00,64.4,60.8,29.91,NNE,29,0.0,0.0,88,0.12,RA,BKN,0.34,183.2,WeatherDisplay:10.37,2013-05-08 18:46:00,
2013-05-08 14:51:00,64.4,60.8,29.90,ESE,121,0.0,0.0,88,0.11,RA,BKN,0.35,204.2,WeatherDisplay:10.37,2013-05-08 18:51:00,
2013-05-08 14:56:00,64.6,61.3,29.90,ENE,77,0.1,2.1,89,0.11,RA,BKN,0.35,203.5,WeatherDisplay:10.37,2013-05-08 18:56:00,
2013-05-08 15:01:00,64.9,61.6,29.89,ENE,62,0.0,0.0,89,0.11,-RA,BKN,0.35,200.3,WeatherDisplay:10.37,2013-05-08 19:01:00,
2013-05-08 15:06:00,64.9,61.3,29.89,ENE,60,0.0,1.1,88,0.11,-RA,BKN,0.36,210.8,WeatherDisplay:10.37,2013-05-08 19:06:00,
2013-05-08 15:11:00,64.9,61.3,29.89,SE,141,0.2,1.1,88,0.10,-RA,BKN,0.36,216.1,WeatherDisplay:10.37,2013-05-08 19:11:00,
2013-05-08 15:16:00,65.1,61.5,29.89,ESE,113,0.3,1.1,88,0.10,-RA,BKN,0.36,236.4,WeatherDisplay:10.37,2013-05-08 19:16:00,
2013-05-08 15:21:00,65.3,62.0,29.89,NE,52,0.0,1.1,89,0.09,-RA,BKN,0.36,299.6,WeatherDisplay:10.37,2013-05-08 19:21:00,
2013-05-08 15:26:00,65.5,62.2,29.89,East,101,0.1,1.1,89,0.08,-RA,BKN,0.36,375.3,WeatherDisplay:10.37,2013-05-08 19:26:00,
2013-05-08 15:31:00,66.2,63.2,29.89,ENE,62,0.5,2.3,90,0.06,-RA,BKN,0.36,487.2,WeatherDisplay:10.37,2013-05-08 19:31:00,
2013-05-08 15:36:00,66.2,62.5,29.89,NNE,33,0.2,2.3,88,0.05,-RA,BKN,0.36,531.3,WeatherDisplay:10.37,2013-05-08 19:36:00,
2013-05-08 15:41:00,66.9,63.6,29.88,NE,34,0.2,1.1,89,0.03,-RA,BKN,0.36,569.2,WeatherDisplay:10.37,2013-05-08 19:41:00,
2013-05-08 15:46:00,67.3,63.6,29.88,NNE,27,0.6,2.3,88,0.02,-RA,BKN,0.36,516.1,WeatherDisplay:10.37,2013-05-08 19:46:00,
2013-05-08 15:51:00,67.8,64.1,29.88,NNE,27,3.4,4.6,88,0.01,-RA,BKN,0.36,491.8,WeatherDisplay:10.37,2013-05-08 19:51:00,
2013-05-08 15:56:00,67.8,63.8,29.87,NE,53,0.0,1.1,87,0.01,-RA,BKN,0.36,432.3,WeatherDisplay:10.37,2013-05-08 19:56:00,
2013-05-08 16:01:00,67.8,63.5,29.88,East,80,1.8,2.5,86,0.01,-RA,BKN,0.36,380.8,WeatherDisplay:10.37,2013-05-08 20:01:00,
2013-05-08 16:06:00,67.6,62.6,29.88,NE,41,2.6,4.9,84,0.01,-RA,BKN,0.36,383.6,WeatherDisplay:10.37,2013-05-08 20:06:00,
2013-05-08 16:11:00,67.8,62.8,29.87,NE,42,3.3,6.9,84,0.00,-RA,BKN,0.36,405.5,WeatherDisplay:10.37,2013-05-08 20:11:00,
2013-05-08 16:16:00,67.8,62.1,29.87,NE,43,2.8,4.6,82,0.00,-RA,BKN,0.36,415.1,WeatherDisplay:10.37,2013-05-08 20:16:00,
2013-05-08 16:21:00,68.2,62.1,29.87,NE,42,2.5,4.1,81,0.00,-RA,BKN,0.36,407.5,WeatherDisplay:10.37,2013-05-08 20:21:00,
2013-05-08 16:26:00,68.5,62.1,29.87,NE,38,0.3,2.3,80,0.00,-RA,BKN,0.36,368.7,WeatherDisplay:10.37,2013-05-08 20:26:00,
2013-05-08 16:31:00,68.7,61.6,29.87,NE,40,1.7,5.8,78,0.00,-RA,BKN,0.36,485.4,WeatherDisplay:10.37,2013-05-08 20:31:00,
2013-05-08 16:36:00,69.1,61.2,29.87,NE,40,2.8,4.9,76,0.00,-RA,BKN,0.36,189.1,WeatherDisplay:10.37,2013-05-08 20:36:00,
2013-05-08 16:41:00,68.5,60.7,29.87,ENE,57,2.5,6.9,76,0.00,-RA,BKN,0.36,186.8,WeatherDisplay:10.37,2013-05-08 20:41:00,
2013-05-08 16:46:00,68.4,60.5,29.87,NNE,28,5.7,7.2,76,0.00,-RA,BKN,0.36,240.5,WeatherDisplay:10.37,2013-05-08 20:46:00,
2013-05-08 16:51:00,68.2,60.3,29.87,NNE,30,3.5,5.8,76,0.00,-RA,BKN,0.36,374.0,WeatherDisplay:10.37,2013-05-08 20:51:00,
2013-05-08 16:56:00,68.5,60.7,29.87,NE,36,3.9,6.9,76,0.00,-RA,BKN,0.36,323.0,WeatherDisplay:10.37,2013-05-08 20:56:00,
2013-05-08 17:01:00,68.7,60.8,29.86,NE,43,1.5,4.3,76,0.00,BKN,,0.36,302.4,WeatherDisplay:10.37,2013-05-08 21:01:00,
2013-05-08 17:06:00,69.1,60.8,29.86,NE,52,3.3,4.6,75,0.00,BKN,,0.36,275.8,WeatherDisplay:10.37,2013-05-08 21:06:00,
2013-05-08 17:11:00,69.6,61.7,29.85,North,0,0.4,3.5,76,0.00,BKN,,0.36,286.8,WeatherDisplay:10.37,2013-05-08 21:11:00,
2013-05-08 17:16:00,70.0,60.5,29.85,North,4,4.0,6.9,72,0.00,BKN,,0.36,298.9,WeatherDisplay:10.37,2013-05-08 21:16:00,
2013-05-08 17:21:00,70.0,60.5,29.85,NNE,31,3.5,4.6,72,0.00,BKN,,0.36,233.4,WeatherDisplay:10.37,2013-05-08 21:21:00,
2013-05-08 17:26:00,70.0,59.7,29.85,NNE,31,2.2,4.6,70,0.00,BKN,,0.36,168.8,WeatherDisplay:10.37,2013-05-08 21:26:00,
2013-05-08 17:31:00,70.0,59.3,29.85,NE,36,4.2,5.8,69,0.00,BKN,,0.36,84.0,WeatherDisplay:10.37,2013-05-08 21:31:00,
2013-05-08 17:36:00,69.4,59.6,29.85,North,356,1.5,3.5,71,0.00,BKN,,0.36,77.9,WeatherDisplay:10.37,2013-05-08 21:36:00,
2013-05-08 17:41:00,66.4,56.7,29.85,SW,216,4.3,5.9,71,0.00,BKN,,0.36,56.7,WeatherDisplay:10.37,2013-05-08 21:41:00,
2013-05-08 17:46:00,64.9,56.8,29.85,SSE,163,2.5,5.8,75,0.00,BKN,,0.36,52.0,WeatherDisplay:10.37,2013-05-08 21:46:00,
2013-05-08 17:51:00,64.2,57.6,29.85,SSW,202,2.7,3.7,79,0.00,BKN,,0.36,33.7,WeatherDisplay:10.37,2013-05-08 21:51:00,
2013-05-08 17:56:00,63.3,57.4,29.85,SE,139,2.5,5.8,81,0.00,BKN,,0.36,27.1,WeatherDisplay:10.37,2013-05-08 21:56:00,
2013-05-08 18:01:00,62.6,57.0,29.85,South,182,2.6,8.9,82,0.00,BKN,,0.36,14.1,WeatherDisplay:10.37,2013-05-08 22:01:00,
2013-05-08 18:06:00,62.2,57.7,29.86,SSW,200,1.0,4.6,85,0.00,BKN,,0.36,13.8,WeatherDisplay:10.37,2013-05-08 22:06:00,
2013-05-08 18:11:00,61.7,57.8,29.85,South,176,1.2,4.6,87,0.08,RA,BKN,0.45,26.9,WeatherDisplay:10.37,2013-05-08 22:11:00,
2013-05-08 18:16:00,61.3,58.1,29.85,South,187,0.0,1.1,89,0.12,RA,BKN,0.49,31.7,WeatherDisplay:10.37,2013-05-08 22:16:00,
2013-05-08 18:21:00,61.3,58.1,29.85,South,189,0.0,3.5,89,0.13,RA,BKN,0.49,30.9,WeatherDisplay:10.37,2013-05-08 22:21:00,
2013-05-08 18:26:00,61.3,58.1,29.85,NE,49,0.0,0.0,89,0.13,RA,BKN,0.49,17.7,WeatherDisplay:10.37,2013-05-08 22:26:00,
2013-05-08 18:31:00,61.5,58.6,29.85,NW,317,0.0,0.0,90,0.14,RA,BKN,0.50,22.9,WeatherDisplay:10.37,2013-05-08 22:31:00,
2013-05-08 18:36:00,61.5,58.2,29.85,NW,309,0.0,0.0,89,0.14,RA,BKN,0.50,30.7,WeatherDisplay:10.37,2013-05-08 22:36:00,
2013-05-08 18:41:00,62.2,59.3,29.85,NW,309,0.0,0.0,90,0.14,BKN,,0.50,33.2,WeatherDisplay:10.37,2013-05-08 22:41:00,
2013-05-08 18:46:00,62.2,59.0,29.85,NW,309,0.0,0.0,89,0.15,RA,BKN,0.51,32.2,WeatherDisplay:10.37,2013-05-08 22:46:00,
2013-05-08 18:51:00,62.1,58.8,29.85,NW,309,0.0,0.0,89,0.15,RA,BKN,0.51,31.2,WeatherDisplay:10.37,2013-05-08 22:51:00,
2013-05-08 18:56:00,62.1,58.8,29.85,NW,319,0.0,0.0,89,0.16,RA,BKN,0.52,28.4,WeatherDisplay:10.37,2013-05-08 22:56:00,
2013-05-08 19:01:00,61.9,58.6,29.85,NW,326,0.0,0.0,89,0.16,RA,BKN,0.52,26.2,WeatherDisplay:10.37,2013-05-08 23:01:00,
2013-05-08 19:06:00,61.9,58.9,29.85,WNW,302,2.4,3.5,90,0.16,OVC,BKN,0.52,31.1,WeatherDisplay:10.37,2013-05-08 23:06:00,
2013-05-08 19:11:00,61.5,58.6,29.85,WNW,297,0.0,1.1,90,0.08,OVC,BKN,0.52,33.9,WeatherDisplay:10.37,2013-05-08 23:11:00,
2013-05-08 19:16:00,61.7,59.0,29.85,NW,309,0.8,2.3,91,0.04,OVC,BKN,0.52,28.9,WeatherDisplay:10.37,2013-05-08 23:16:00,
2013-05-08 19:21:00,61.9,59.2,29.85,NW,311,1.6,2.3,91,0.03,OVC,BKN,0.52,22.6,WeatherDisplay:10.37,2013-05-08 23:21:00,
2013-05-08 19:26:00,61.9,59.2,29.84,NW,325,0.8,3.5,91,0.03,OVC,BKN,0.52,20.2,WeatherDisplay:10.37,2013-05-08 23:26:00,
2013-05-08 19:31:00,61.9,59.2,29.85,NNW,327,1.6,3.5,91,0.02,OVC,BKN,0.52,16.0,WeatherDisplay:10.37,2013-05-08 23:31:00,
2013-05-08 19:36:00,62.2,59.6,29.85,North,356,0.1,0.8,91,0.02,OVC,BKN,0.52,9.0,WeatherDisplay:10.37,2013-05-08 23:36:00,
2013-05-08 19:41:00,62.2,59.6,29.85,North,9,0.7,2.3,91,0.02,OVC,BKN,0.52,7.3,WeatherDisplay:10.37,2013-05-08 23:41:00,
2013-05-08 19:46:00,62.2,59.6,29.85,North,5,0.2,1.1,91,0.01,OVC,BKN,0.52,6.9,WeatherDisplay:10.37,2013-05-08 23:46:00,
2013-05-08 19:51:00,62.1,59.4,29.85,North,352,0.1,1.1,91,0.01,OVC,BKN,0.52,5.8,WeatherDisplay:10.37,2013-05-08 23:51:00,
2013-05-08 19:56:00,61.9,59.2,29.85,NNE,12,1.7,6.9,91,0.00,OVC,BKN,0.52,2.6,WeatherDisplay:10.37,2013-05-08 23:56:00,
2013-05-08 20:01:00,61.7,59.0,29.85,NE,35,1.6,3.5,91,0.00,OVC,BKN,0.52,2.4,WeatherDisplay:10.37,2013-05-09 00:01:00,
2013-05-08 20:06:00,61.5,58.9,29.84,NE,39,1.3,4.6,91,0.00,OVC,BKN,0.52,1.6,WeatherDisplay:10.37,2013-05-09 00:06:00,
2013-05-08 20:11:00,61.5,58.9,29.84,NNE,29,0.0,0.0,91,0.00,OVC,BKN,0.52,0.6,WeatherDisplay:10.37,2013-05-09 00:11:00,
2013-05-08 20:16:00,61.7,59.4,29.84,NE,45,2.0,3.5,92,0.00,OVC,BKN,0.52,0.6,WeatherDisplay:10.37,2013-05-09 00:16:00,
2013-05-08 20:21:00,61.5,59.2,29.84,NE,38,1.0,3.5,92,0.00,OVC,BKN,0.52,0.5,WeatherDisplay:10.37,2013-05-09 00:21:00,
2013-05-08 20:26:00,61.5,59.2,29.84,NNE,29,0.5,1.1,92,0.00,OVC,BKN,0.52,0.0,WeatherDisplay:10.37,2013-05-09 00:26:00,
2013-05-08 20:31:00,61.3,59.0,29.84,NNE,26,0.0,1.1,92,0.00,OVC,BKN,0.52,0.0,WeatherDisplay:10.37,2013-05-09 00:31:00,
2013-05-08 20:36:00,61.5,59.2,29.83,NNE,29,0.0,1.1,92,0.00,OVC,BKN,0.52,0.0,WeatherDisplay:10.37,2013-05-09 00:36:00,
2013-05-08 20:41:00,61.5,59.2,29.84,NNE,33,0.2,1.1,92,0.00,OVC,BKN,0.52,0.0,WeatherDisplay:10.37,2013-05-09 00:41:00,
2013-05-08 20:46:00,61.5,59.2,29.84,NNE,33,0.0,0.0,92,0.00,OVC,BKN,0.52,0.0,WeatherDisplay:10.37,2013-05-09 00:46:00,
2013-05-08 20:51:00,61.5,59.2,29.84,NNE,33,0.0,0.0,92,0.00,OVC,BKN,0.52,0.0,WeatherDisplay:10.37,2013-05-09 00:51:00,
2013-05-08 20:56:00,61.5,59.2,29.84,NE,42,0.0,0.0,92,0.00,OVC,BKN,0.52,0.0,WeatherDisplay:10.37,2013-05-09 00:56:00,
2013-05-08 21:01:00,61.3,59.0,29.84,NE,42,0.0,0.0,92,0.00,OVC,BKN,0.53,0.0,WeatherDisplay:10.37,2013-05-09 01:01:00,
2013-05-08 21:06:00,61.5,59.2,29.84,ENE,65,0.0,0.0,92,0.01,RA,BKN,0.54,0.0,WeatherDisplay:10.37,2013-05-09 01:06:00,
2013-05-08 21:11:00,61.5,59.2,29.84,ENE,65,0.0,0.0,92,0.02,RA,BKN,0.54,0.0,WeatherDisplay:10.37,2013-05-09 01:11:00,
2013-05-08 21:16:00,61.5,59.2,29.84,SE,140,0.0,1.1,92,0.02,RA,BKN,0.54,0.0,WeatherDisplay:10.37,2013-05-09 01:16:00,
2013-05-08 21:21:00,61.5,59.2,29.85,SE,128,0.3,1.1,92,0.02,OVC,BKN,0.54,0.0,WeatherDisplay:10.37,2013-05-09 01:21:00,
2013-05-08 21:26:00,61.5,59.2,29.84,SSE,150,0.0,0.0,92,0.02,OVC,BKN,0.54,0.0,WeatherDisplay:10.37,2013-05-09 01:26:00,
2013-05-08 21:31:00,61.5,59.2,29.85,SSE,158,0.0,1.1,92,0.02,OVC,BKN,0.54,0.0,WeatherDisplay:10.37,2013-05-09 01:31:00,
2013-05-08 21:36:00,61.5,59.2,29.85,SSE,159,0.0,0.0,92,0.02,OVC,BKN,0.54,0.0,WeatherDisplay:10.37,2013-05-09 01:36:00,
2013-05-08 21:41:00,61.5,59.2,29.85,SSE,156,0.0,0.0,92,0.03,RA,BKN,0.55,0.0,WeatherDisplay:10.37,2013-05-09 01:41:00,
2013-05-08 21:46:00,61.5,59.2,29.85,SSE,156,0.0,0.0,92,0.04,RA,BKN,0.56,0.0,WeatherDisplay:10.37,2013-05-09 01:46:00,
2013-05-08 21:51:00,61.5,59.2,29.85,SSE,156,0.0,0.0,92,0.04,RA,BKN,0.56,0.0,WeatherDisplay:10.37,2013-05-09 01:51:00,
2013-05-08 21:56:00,61.5,59.2,29.85,SSE,157,0.0,0.0,92,0.04,OVC,BKN,0.56,0.0,WeatherDisplay:10.37,2013-05-09 01:56:00,
2013-05-08 22:01:00,61.5,59.2,29.85,SSE,153,0.0,0.0,92,0.04,BKN,,0.56,0.0,WeatherDisplay:10.37,2013-05-09 02:01:00,
2013-05-08 22:06:00,61.5,59.2,29.85,SE,138,0.0,0.0,92,0.03,BKN,,0.56,0.0,WeatherDisplay:10.37,2013-05-09 02:06:00,
2013-05-08 22:11:00,61.3,59.0,29.85,SE,138,0.0,0.0,92,0.03,RA,BKN,0.57,0.0,WeatherDisplay:10.37,2013-05-09 02:11:00,
2013-05-08 22:16:00,61.3,59.0,29.84,SE,138,0.0,0.0,92,0.03,RA,BKN,0.57,0.0,WeatherDisplay:10.37,2013-05-09 02:16:00,
2013-05-08 22:21:00,61.3,59.0,29.84,SE,138,0.0,0.0,92,0.03,BKN,,0.57,0.0,WeatherDisplay:10.37,2013-05-09 02:21:00,
2013-05-08 22:26:00,61.2,58.5,29.84,SE,138,0.0,0.0,91,0.03,BKN,,0.57,0.0,WeatherDisplay:10.37,2013-05-09 02:26:00,
2013-05-08 22:31:00,61.3,59.0,29.84,SE,138,0.0,0.0,92,0.03,BKN,,0.57,0.0,WeatherDisplay:10.37,2013-05-09 02:31:00,
2013-05-08 22:36:00,61.2,58.8,29.84,SE,138,0.0,0.0,92,0.03,BKN,,0.57,0.0,WeatherDisplay:10.37,2013-05-09 02:36:00,
2013-05-08 22:41:00,61.2,58.5,29.84,SE,138,0.0,0.0,91,0.02,BKN,,0.57,0.0,WeatherDisplay:10.37,2013-05-09 02:41:00,
2013-05-08 22:46:00,61.0,58.3,29.84,SE,138,0.0,0.0,91,0.01,BKN,,0.57,0.0,WeatherDisplay:10.37,2013-05-09 02:46:00,
2013-05-08 22:51:00,61.2,58.5,29.84,SE,138,0.0,0.0,91,0.01,BKN,,0.57,0.0,WeatherDisplay:10.37,2013-05-09 02:51:00,
2013-05-08 22:56:00,61.2,58.5,29.84,SE,138,0.0,0.0,91,0.01,BKN,,0.57,0.0,WeatherDisplay:10.37,2013-05-09 02:56:00,
2013-05-08 23:01:00,61.2,58.5,29.84,SE,138,0.0,0.0,91,0.01,-RA,BKN,0.57,0.0,WeatherDisplay:10.37,2013-05-09 03:01:00,
2013-05-08 23:06:00,61.0,58.3,29.84,SE,138,0.0,0.0,91,0.01,-RA,BKN,0.57,0.0,WeatherDisplay:10.37,2013-05-09 03:06:00,
2013-05-08 23:11:00,61.0,58.3,29.83,SE,138,0.0,0.0,91,0.00,-RA,BKN,0.57,0.0,WeatherDisplay:10.37,2013-05-09 03:11:00,
2013-05-08 23:16:00,61.0,58.3,29.83,SE,139,0.0,0.0,91,0.00,-RA,BKN,0.57,0.0,WeatherDisplay:10.37,2013-05-09 03:16:00,
2013-05-08 23:21:00,61.0,58.6,29.83,SE,138,0.0,0.0,92,0.00,-RA,BKN,0.57,0.0,WeatherDisplay:10.37,2013-05-09 03:21:00,
2013-05-08 23:26:00,61.2,58.8,29.83,SE,138,0.0,0.0,92,0.00,-RA,BKN,0.57,0.0,WeatherDisplay:10.37,2013-05-09 03:26:00,
2013-05-08 23:31:00,61.2,58.8,29.83,SE,138,0.0,0.0,92,0.00,-RA,BKN,0.57,0.0,WeatherDisplay:10.37,2013-05-09 03:31:00,
2013-05-08 23:36:00,61.0,58.6,29.82,SE,138,0.0,0.0,92,0.00,-RA,BKN,0.57,0.0,WeatherDisplay:10.37,2013-05-09 03:36:00,
2013-05-08 23:41:00,61.0,58.6,29.82,SE,138,0.0,0.0,92,0.00,-RA,BKN,0.57,0.0,WeatherDisplay:10.37,2013-05-09 03:41:00,
2013-05-08 23:46:00,61.0,58.6,29.81,SE,139,0.0,0.0,92,0.00,-RA,BKN,0.57,0.0,WeatherDisplay:10.37,2013-05-09 03:46:00,
2013-05-08 23:51:00,60.6,58.3,29.82,SE,138,0.0,0.0,92,0.00,-RA,BKN,0.57,0.0,WeatherDisplay:10.37,2013-05-09 03:51:00,
2013-05-08 23:56:00,60.6,58.3,29.82,SE,138,0.0,0.0,92,0.00,-RA,BKN,0.57,0.0,WeatherDisplay:10.37,2013-05-09 03:56:00,